This demonstration page uses our WeatherBlox Daily Observations layout. Learn more.

38.88101, -77.10428

Hourly Observations for November 3, 2016

Temp ( °F °C ) Dew Point ( °F °C ) Humidity (%) Winds ( mph kmh ) Pressure ( in mb ) Visibility ( mi km ) Precip ( " mm )
12:52 am 00:52 Mostly Cloudy 59 15 59 15 100 100 SSW 6 9 30.15 1021 9 14.484096 0 0
1:52 am 01:52 Mostly Cloudy 60 15.6 59 15 96 96 SW 5 7 30.12 1020 8 12.874752 0 0
2:52 am 02:52 Cloudy 60 15.6 59 15 96 96 S 5 7 30.12 1020 7 11.265408 0 0
3:52 am 03:52 Cloudy 59 15 59 15 100 100 SSW 5 7 30.12 1020 7 11.265408 0 0
4:52 am 04:52 Mostly Cloudy 59 15 59 15 100 100 S 7 11 30.09 1019 7 11.265408 0 0
5:52 am 05:52 Mostly Cloudy 60 15.6 60 15.6 100 100 SSW 5 7 30.09 1019 7 11.265408 0 0
6:15 am 06:15 Cloudy 60 15.6 60 15.6 100 100 S 7 11 30.06 1018 7 11.265408 0 0
6:52 am 06:52 Mostly Cloudy 59 15 59 15 100 100 S 7 11 30.06 1018 7 11.265408 0 0
7:52 am 07:52 Mostly Cloudy with Mist and Fog 60 15.6 60 15.6 100 100 S 7 11 30.06 1018 5 8.04672 0 0
8:52 am 08:52 Mostly Cloudy with Mist and Fog 60 15.6 60 15.6 100 100 S 7 11 30.06 1018 6 9.656064 0 0
9:52 am 09:52 Mostly Cloudy 63 17.2 61 16.1 93 93 S 10 17 30.06 1018 7 11.265408 0 0
10:52 am 10:52 Partly Cloudy 69 20.6 61 16.1 76 76 S 10 17 30.03 1017 10 16.09344 0 0
11:52 am 11:52 Mostly Cloudy 73 22.8 61 16.1 66 66 S 7 11 30.03 1017 10 16.09344 0 0
12:52 pm 12:52 Mostly Cloudy 81 27.2 56 13.3 42 42 WSW 8 13 30 1016 10 16.09344 0 0
1:52 pm 13:52 Mostly Cloudy 82 27.8 56 13.3 41 41 WNW 17 28 29.97 1015 10 16.09344 0 0
2:05 pm 14:05 Cloudy with Light Rain 79 26.1 56 13.3 45 45 NW 14 22 29.97 1015 10 16.09344 0.001 0.001
2:52 pm 14:52 Cloudy 79 26.1 58 14.4 49 49 WNW 8 13 29.97 1015 10 16.09344 0.001 0.001
3:52 pm 15:52 Mostly Cloudy 79 26.1 57 13.9 47 47 W 10 17 29.94 1014 10 16.09344 0 0
4:52 pm 16:52 Mostly Cloudy 78 25.6 57 13.9 48 48 WNW 10 17 29.97 1015 10 16.09344 0 0
5:52 pm 17:52 Mostly Cloudy 75 23.9 59 15 58 58 NW 10 17 29.97 1015 10 16.09344 0 0
6:52 pm 18:52 Mostly Cloudy 74 23.3 58 14.4 57 57 NNW 10 17 29.97 1015 10 16.09344 0 0
7:52 pm 19:52 Cloudy 73 22.8 58 14.4 59 59 WNW 10 17 29.97 1015 10 16.09344 0 0
8:52 pm 20:52 Cloudy 72 22.2 58 14.4 61 61 NNW 14 22 29.97 1015 10 16.09344 0 0
9:52 pm 21:52 Mostly Cloudy 69 20.6 58 14.4 68 68 N 10 17 29.97 1015 10 16.09344 0 0
10:52 pm 22:52 Cloudy with Light Rain 66 18.9 58 14.4 75 75 N 14 22 30 1016 10 16.09344 0.001 0.001
11:52 pm 23:52 Cloudy 66 18.9 55 12.8 68 68 NNE 14 22 30 1016 10 16.09344 0.001 0.001

Powered by AerisWeather